OBJECT AN, 69016

Orbit data source: Space-Track

You're viewing an Uncataloged Satellite

Recently launched and/or uncataloged satellites may have evolving metadata. Metadata may include but not limited to: Owner, Maufacturer, Bus, Motor, and Mission.

OBJECT AN, 69016 is a satellite in SSO that was launched on Sun, 03 May 2026 UTC launched from the Air Force Western Test Range (AFWTR). Unknown objects in Earth's orbit typically refer to objects detected orbiting the Earth but have not yet been identified or cataloged. These objects could be anything from previously untracked satellites, spent rocket stages, debris from satellite collisions, or even natural meteoroids temporarily captured by Earth's gravity.

Loading next visibility...
Identifier
69016, 2026-100AN
Orbit
SSO
Country
Flag of TBDTBD
Related business
None
Manufacturer
Unknown
Mission
Operational spacecraft
Bus & Motor
Unknown
Mass
Unknown
Launch date (UTC)
2026-05-03 (1 week ago)
Launch vehicle
Unknown
Launch site
Air Force Western Test Range (AFWTR)
Object type
Unknown
Shape & HBR
Unknown
Radar Cross Section
RCS unknown

Expand to show TLE details & history
Last TLE update: 7 hours ago

TLE from 7 hours ago
0 OBJECT AN
1 69016U 26100AN  26130.17464044  .00003192  00000-0  14633-3 0  9998
2 69016  97.4065  28.6861 0008085 170.3555 189.7837 15.21149156  1035
Epoch: 2026-05-10T04:11Z
TLE epoch observation values (Epoch: 2026-05-10T04:11:28.934Z)
Latitude
-0.00004°
Longitude
97.83404°
Altitude
510.948 km
Speed
7.605 km/s
True Right ascension
01h 54m 44s
True Declination
0° 00' 00"
Sunlit
Object was in daylight at epoch
Visualization orbit readout
Latitude
Unknown
Longitude
Unknown
Altitude
Unknown
Speed
Unknown
Apparent Right ascension
Unknown
Apparent Declination
Unknown
Sunlit
N/A
Visualization observer readout
Local Sidereal Time
19:44:29
Azimuth
Unknown
Elevation
Unknown
Doppler factor
Unknown
Orbital elements
Apogee altitude
504.898 km
Perigee altitude
493.777 km
Semi-major axis
6,877.474 km
Eccentricity
0.00081
Inclination
97.4065°
RAAN
28.6861°
Arg. of periapsis
170.3555°
True anomaly
189.76797°
Mean anomaly
189.7837°
Eccentric anomaly
189.77583°
Mean motion
3.80539 °/min
Orbital period
94.6 mins
BSTAR
0.00014633
Loading maneuver chart data...
Computing Atmospheric mass density...
Loading historical data...
Loading historical data...
Loading historical data...
Loading historical data...
Loading historical data...
Loading historical data...
Loading historical data...

Documentation

Showing up to 5 results
|